Find WHDW 02-08

NORAD ID: 62978 Int'l Des: 2025-030 Owner: ZXW Country: CN Constellation: xingwang operational
LEOCIRCULAR

Live-Position

3D-Globus wird geladen...

Über WHDW 02-08

Beschreibung wird geladen...

Nächste Überflüge

Passes for default location (London). Set your location on the main map for personalized predictions.

Höhenverlauf

Loading altitude history...

Zweizeiliger Elementsatz

1 62978U 25030H 26104.19904825 -.00000079 00000-0 96514-4 0 9999
2 62978 50.0049 105.0122 0001212 303.4666 56.6090 13.29325733 57351
Epoch: 14. Apr. 2026 • Age: 11 hours

Aktueller Status

Höhe 1154.7 km
Geschwindigkeit 7.28 km/s
Subsatellitenpunkt 45.33°N, 140.38°E
Startdatum 11. Feb. 2025
Alter 1.1 years
Typ other

Technische Details

Klassifizierung Payload
Masse 700.00 kg
Trockenmasse 700.00 kg
Gesamtmasse 700.00 kg
Länge 3.00 m
Durchmesser 1.00 m
Spannweite 10.00 m
Form Box + 2 Pan
Hersteller CAST
Bus-Typ Xingwang C
Phasenstatus In Orbit
Besitzer/Staat ZXW/CN

Most Searched